#timestamp,LO_Frequency,Hit 
1501606815.3,286047027.6,P
1501606835.1,286047030.3,P
1501606855.8,286047022.8,P
1501606875.7,286047019.7,P
1501606895.5,286046992.5,N
1501606915.4,286046989.8,N
1501606935.2,286046986.6,N
1501606955.0,286046983.4,N
1501606955.9,286046983.4,N
1501606975.8,286046979.2,N
1501606995.6,286046980.8,N
1501607015.5,286046983.2,N
1501607035.3,286046981.5,N
1501607055.1,286046978.0,N
1501607075.9,286046976.7,N
1501607095.7,286046972.6,N
1501607115.5,286046976.7,N
1501607135.4,286046980.9,N
1501607155.2,286046978.4,N
1501607175.0,286046975.0,N
1501607176.0,286046975.0,N
1501607195.8,286046974.4,N
1501607215.6,286046981.1,N
1501607235.5,286046988.2,N
1501607255.3,286046985.1,N
1501607275.1,286046980.1,N
1501607295.9,286046981.2,N
1501607315.7,286046997.2,N
1501607335.6,286047007.1,N
1501607355.4,286047013.8,N
1501607375.2,286047023.2,N
1501607395.1,286047010.2,N
1501607396.0,286047010.2,N
1501607415.8,286047004.0,N
1501607435.6,286046996.6,N
1501607455.5,286046995.5,N
1501607475.3,286046993.5,N
1501607495.2,286047005.2,N
1501607515.9,286047002.0,N
1501607535.7,286047000.3,N
1501607555.6,286046996.8,N
1501607575.4,286047003.2,N
1501607595.2,286047017.5,N
1501607615.1,286047018.2,N
1501607616.0,286047018.2,N
1501607635.8,286047012.6,N
1501607655.7,286047008.1,N
1501607675.5,286047010.0,N
1501607695.3,286047003.7,N
1501607715.2,286047000.0,N
1501607735.0,286046999.6,N
1501607735.9,286046999.6,N
1501607755.8,286046998.2,N
1501607775.6,286046995.8,N
1501607795.4,286047004.1,N
1501607815.3,286047013.1,N
1501607835.1,286047015.4,N
1501607855.8,286047009.1,N
1501607875.7,286047005.1,N
1501607895.5,286047011.8,N
1501607915.4,286047019.0,N
1501607935.2,286047014.1,N
1501607955.0,286047012.1,N
1501607955.9,286047012.1,N
1501607975.8,286047020.0,N
1501607995.6,286047044.8,P
1501608015.4,286047037.2,N
1501608035.3,286047040.3,N
1501608055.1,286047036.2,N
1501608075.9,286047032.7,N
1501608095.7,286047029.0,N
1501608115.5,286047027.6,N
1501608135.3,286047017.8,N
1501608155.2,286047014.7,N
1501608175.9,286047014.5,N
1501608195.7,286047009.8,N
1501608215.6,286047006.5,N
1501608235.4,286047004.5,N
1501608255.2,286047031.6,N
1501608275.1,286047045.5,P
1501608276.0,286047045.5,P
1501608295.8,286047019.8,N
1501608315.7,286047008.9,N
1501608335.5,286047013.8,N
1501608355.3,286047003.9,N
1501608375.2,286046997.9,N
1501608395.0,286046995.9,N
1501608395.9,286046995.9,N
1501608415.8,286046991.2,N
1501608435.6,286046991.3,N
1501608455.4,286046992.8,N
1501608475.3,286046989.2,N
1501608495.1,286046987.2,N
1501608515.8,286046987.3,N
1501608535.1,286046986.6,N
1501608555.9,286046992.7,N
1501608575.7,286046987.3,N
1501608595.5,286046985.6,N
1501608615.4,286046984.4,N
1501608635.2,286046983.3,N
1501608655.1,286046988.1,N
1501608656.0,286046988.1,N
1501608675.8,286046995.0,N
1501608695.6,286046997.5,N
1501608715.5,286046987.6,N
1501608735.3,286046984.1,N
1501608755.2,286046987.7,N
1501608775.9,286046986.2,N
1501608795.7,286046997.4,N
1501608815.6,286046991.6,N
1501608835.4,286046985.3,N
1501608855.2,286046994.0,N
1501608875.1,286046989.8,N
1501608876.0,286046989.8,N
1501608895.8,286046986.4,N
1501608915.7,286046986.8,P
1501608935.5,286046992.8,P
1501608955.3,286046992.9,N
1501608975.2,286046994.6,N
1501608995.0,286047002.4,N
1501608995.9,286047002.4,N
1501609015.8,286047013.4,N
1501609035.6,286047003.3,N
1501609055.4,286047000.2,N
1501609075.3,286046997.2,N
1501609095.1,286046999.0,N
1501609115.8,286047008.2,N
1501609135.7,286047008.9,N
1501609155.5,286047002.8,N
1501609175.4,286046997.3,N
1501609195.2,286046995.3,N
1501609215.0,286046991.7,N
1501609215.9,286046991.7,N
1501609235.8,286046996.3,N
1501609255.6,286047004.1,N
1501609275.5,286047012.1,N
1501609325.3,286047002.0,E
1501609335.2,286047005.3,N
1501609355.1,286047010.6,P
1501609356.0,286047010.6,P
1501609375.8,286047005.4,N
1501609395.7,286047000.1,N
1501609415.3,286046996.9,N
1501609435.1,286046996.3,N
1501609455.9,286047005.5,N
1501609475.7,286047003.2,N
1501609495.6,286046998.5,N
1501609515.4,286046996.2,N
1501609535.2,286046992.6,N
1501609555.1,286046992.8,N
1501609556.0,28601501609575.0,286046992.7,P
1501609575.9,286046992.7,P
1501609595.8,286046995.7,P
1501609645.6,286047001.9,E
1501609655.5,286047002.2,N
1501609675.4,286046996.5,P
1501609695.2,286046995.4,N
1501609715.1,286046996.6,N
1501609716.0,286046996.6,N
1501609735.8,286046993.4,N
1501609755.6,286046994.0,N
1501609775.5,286046996.3,N
1501609795.3,286046994.2,N
1501609815.2,286046991.9,P
1501609835.9,286046994.8,N
1501609855.7,286046997.0,N
1501609875.6,286046996.1,N
1501609895.4,286046992.6,P
1501609915.3,286046997.7,N
1501609935.1,286046995.7,N
1501609936.0,286046995.7,N
1501609955.8,286046996.1,N
1501609975.7,286047001.0,N
1501609995.5,286047004.0,N
1501610015.3,286047003.7,N
1501610035.2,286046996.6,N
1501610055.0,286047005.1,N
1501610055.9,286047005.1,N
1501610075.8,286047006.1,N
1501610095.6,286047005.9,N
1501610115.4,286047004.4,N
1501610135.3,286047011.6,N
1501610155.1,286047007.0,N
1501610175.8,286047008.2,N
1501610195.7,286047004.9,N
1501610215.5,286047002.0,N
1501610235.4,286047003.2,N
1501610255.2,286047012.3,N
1501610275.0,286047006.9,N
1501610275.9,286047006.9,N
1501610295.8,286047005.0,N
1501610315.6,286047002.6,N
1501610335.5,286047003.6,N
1501610355.3,286046999.8,N
1501610395.5,286046999.5,N
